[Date Prev][Date Next][Thread Prev][Thread Next] - [Date Index][Thread Index][Author Index]
2 Line ISS Keps 8-28
- Subject: [sarex] 2 Line ISS Keps 8-28
- From: "Dave Larsen PhD" <doc@xxxxxxxxxxx>
- Date: Sat, 28 Aug 2004 04:11:31 -0700
ISS
1 25544U 98067A 04241.20831708 .00016104 00000-0 14090-3 0 5490
2 25544 51.6374 318.0539 0005548 86.5956 10.0964 15.69071023329635
----
Via the sarex mailing list at AMSAT.ORG courtesy of AMSAT-NA.
To unsubscribe, send "unsubscribe sarex" to Majordomo@amsat.org
AMSAT Home